Wetbulb
44.27 44.84 44.82 44.94 45.22 44.87 43.78 44.21 43.79 44.30 44.28 44.55 44.75 44.70 44.66 44.82 44.93 45.00 43.45 47.39 42.29 35.42 36.54 40.62 40.79 37.63 37.49 36.85 31.86 35.36 33.79 35.04 34.94 31.18 30.62 29.95 29.09 29.81 29.52 31.57 28.89 28.15 26.14 25.61 27.13 23.96 20.76 37.41 35.73 30.07 35.52 38.94 38.92 38.96
44.38 44.47 45.00 45.26 45.57 45.24 43.85 44.20 44.38 44.74 44.95 44.08 44.75 44.14 44.03 44.06 43.92 45.54 40.52 45.16 45.25 39.59 37.27 42.70 42.62 43.67 43.16 42.62 40.04 38.69 37.13 36.56 37.49 34.67 35.38 33.95 30.35 31.39 30.21 25.14 34.78 27.15 31.00 28.99 29.40 29.52 36.65 38.48 37.47 39.54 40.27 38.93 39.65 39.54
44.32 44.66 44.95 45.31 45.31 45.37 44.55 44.60 44.89 45.10 44.87 44.54 43.96 43.77 43.53 43.84 44.98 46.01 43.96 44.79 43.17 38.76 37.44 38.26 37.53 42.96 46.02 46.62 47.46 37.35 39.21 40.50 39.38 42.46 38.45 35.94 29.81 33.96 27.99 29.88 31.61 33.76 35.66 31.80 30.92 34.20 35.93 37.61 39.34 40.03 40.21 39.82 40.54 40.92
44.62 44.91 45.09 45.41 45.58 45.14 45.09 44.96 45.18 45.15 44.90 44.52 43.77 43.60 43.68 43.84 45.09 45.74 42.84 45.15 43.30 39.99 33.06 34.02 43.53 40.47 44.73 45.64 45.22 45.19 42.82 43.44 42.91 41.73 37.49 35.19 32.18 36.41 32.77 33.54 32.28 34.82 35.09 32.19 32.18 35.22 36.74 37.88 39.00 39.77 40.05 40.78 40.46 40.95
44.88 44.90 44.91 45.24 45.54 45.64 45.13 44.46 45.07 45.06 44.95 44.63 43.81 43.71 43.37 43.47 44.73 45.69 44.87 44.59 45.02 40.73 32.37 33.42 39.96 42.56 44.05 44.06 43.37 44.16 43.28 41.40 39.86 36.94 35.80 33.87 37.63 35.21 36.05 35.39 32.27 36.24 33.91 31.30 30.23 36.85 36.63 37.05 39.82 40.79 39.74 39.59 40.46 40.15
44.51 44.62 44.95 45.51 45.71 45.41 44.64 44.58 45.13 44.87 44.86 44.80 44.38 43.82 43.33 43.54 44.65 42.71 34.33 44.11 45.79 44.76 37.33 30.97 38.82 39.17 41.85 42.94 42.21 41.65 42.06 41.25 40.50 38.54 36.78 38.02 39.32 37.33 31.83 29.55 35.71 38.08 38.70 38.47 35.49 39.05 38.79 39.50 40.30 40.99 39.85 40.34 40.87 40.65
44.40 44.83 45.34 45.24 45.35 44.84 44.69 44.93 45.06 44.92 44.77 44.62 44.58 44.40 44.47 44.85 44.69 40.08 38.02 41.28 43.24 45.93 37.38 31.66 31.40 36.93 39.92 40.77 40.74 39.15 41.77 41.60 40.66 38.32 37.01 37.37 36.71 36.01 32.71 28.41 35.44 37.71 38.76 38.70 39.59 39.37 37.13 38.91 37.70 40.88 41.13 41.04 41.02 40.65
44.05 44.80 45.03 45.08 44.94 45.00 44.75 44.74 44.76 44.87 44.69 44.49 44.04 43.61 43.32 43.13 42.90 40.65 43.73 44.44 45.59 41.91 39.99 31.42 28.97 32.42 39.61 35.23 33.93 40.25 36.37 38.70 39.17 38.31 38.90 35.62 37.36 35.97 28.61 33.86 36.07 37.12 38.00 38.35 38.90 39.62 38.70 39.13 38.80 38.87 39.56 40.16 39.03 39.10
44.05 44.22 44.34 44.57 44.55 44.48 44.45 44.47 44.62 44.50 44.10 43.41 42.99 42.91 43.57 41.01 39.83 39.40 43.27 44.87 46.56 41.88 34.63 33.88 29.20 27.09 38.71 35.32 35.66 36.70 38.38 31.96 38.41 34.16 34.63 36.03 32.29 28.72 32.43 34.67 36.22 37.32 35.73 35.21 38.13 37.64 38.06 37.28 37.88 38.78 39.08 38.67 38.09 38.24
42.00 42.55 44.16 44.23 44.22 44.26 44.29 44.06 43.61 43.47 43.41 43.65 42.89 38.67 32.35 39.02 42.48 42.29 42.11 39.18 39.05 39.82 40.10 34.27 37.15 30.68 36.03 34.95 32.89 32.74 35.93 32.58 28.23 32.83 36.66 31.33 30.32 36.37 37.67 38.35 38.93 36.42 36.07 37.14 32.78 34.10 36.01 34.87 36.23 37.27 37.01 37.60 37.04 36.06
43.10 42.94 42.33 42.11 42.56 43.46 43.29 43.38 43.38 43.43 43.43 44.25 36.10 32.99 41.05 42.29 42.13 39.55 32.46 32.78 34.51 31.20 35.82 36.00 35.26 32.12 38.26 31.58 31.21 36.20 31.73 32.79 25.86 29.99 29.47 28.90 29.46 34.97 37.41 35.58 35.69 34.84 34.87 35.53 35.51 35.47 35.70 35.17 34.33 36.03 35.42 34.38 34.57 34.53
43.14 43.55 43.21 43.00 41.96 41.80 42.11 42.60 42.58 44.74 44.31 41.67 40.28 42.05 41.89 38.62 36.48 29.76 28.84 31.36 30.29 28.44 34.57 32.80 34.09 35.47 36.21 37.59 32.06 33.71 28.34 30.50 22.53 33.83 28.46 25.89 32.87 36.17 35.65 33.85 33.52 34.03 33.80 32.83 33.60 33.44 33.44 33.93 34.60 34.01 34.24 33.81 32.45 32.75
43.44 43.38 43.12 43.10 42.67 42.49 42.88 42.99 43.26 43.07 43.42 44.71 41.42 34.47 35.55 33.90 26.05 24.45 21.16 27.08 28.82 32.80 34.55 34.48 32.12 35.23 36.11 36.61 32.33 31.17 25.96 26.00 33.37 27.31 26.00 31.51 33.51 35.19 34.63 34.06 33.61 33.73 33.41 34.11 33.46 33.49 33.76 32.97 32.52 32.36 31.51 32.28 32.81 32.08
42.32 42.50 42.54 43.08 43.14 43.30 42.46 41.73 41.74 43.86 43.62 38.43 33.18 26.25 29.76 27.43 29.76 30.92 30.74 31.90 35.08 35.42 34.51 34.81 33.53 33.07 34.25 31.45 31.62 26.01 29.49 30.62 24.07 22.34 24.89 33.61 33.85 34.80 34.44 35.08 33.37 33.08 33.00 32.60 32.24 31.61 31.66 31.88 31.45 32.17 31.99 32.35 32.17 31.27
41.06 41.59 42.07 42.64 42.62 42.62 42.66 42.63 41.89 46.21 41.85 34.49 34.08 26.45 29.06 34.10 34.63 34.36 36.59 36.59 37.90 37.25 35.92 34.23 34.27 34.55 31.61 28.47 31.06 28.53 23.91 22.00 25.40 26.40 31.92 36.08 36.16 35.03 34.18 34.41 33.27 32.54 32.49 31.96 31.94 31.85 31.63 31.99 31.81 30.76 31.55 32.16 32.13 31.64
40.24 40.00 41.98 41.98 42.07 41.75 42.28 44.29 44.61 43.94 40.51 36.63 34.14 30.92 34.29 33.86 31.27 31.61 34.71 34.06 38.40 36.77 37.18 36.15 30.71 28.81 27.31 29.07 25.82 24.56 23.89 23.18 29.44 33.37 36.76 36.87 35.15 34.49 34.04 33.33 33.62 33.94 33.50 33.02 32.61 32.16 32.02 31.81 31.70 30.64 31.31 31.80 31.63 31.51
38.56 40.69 39.12 41.35 41.73 42.10 42.21 43.34 42.31 36.19 35.31 32.83 32.20 34.33 33.31 34.18 31.99 33.52 36.55 36.65 39.60 35.92 31.89 32.65 26.97 25.97 31.85 26.83 25.41 30.37 27.58 32.64 34.61 34.57 35.85 35.29 33.86 33.52 34.82 34.23 33.46 33.60 33.10 33.11 32.80 32.68 32.88 33.30 32.76 31.64 30.54 31.58 31.74 31.63
41.45 41.41 38.24 39.60 41.08 42.11 43.81 42.37 38.69 34.92 30.09 34.44 32.13 32.85 32.63 33.03 31.41 32.87 36.64 39.06 36.95 34.65 34.55 30.94 35.14 28.32 26.48 24.55 27.60 33.58 35.89 34.63 35.86 35.92 35.30 36.15 35.94 35.29 35.16 34.78 35.16 34.66 33.81 33.36 32.97 33.06 33.07 32.46 31.38 31.77 32.30 32.38 31.40 31.77
39.55 41.23 39.17 38.91 39.27 39.60 36.36 35.37 37.29 29.72 32.08 32.71 33.64 34.42 33.39 32.73 33.51 34.88 35.13 36.60 38.12 38.83 36.58 34.88 29.57 28.60 29.89 33.94 34.71 34.98 35.20 36.51 33.93 34.42 34.72 35.63 35.64 35.12 34.98 36.39 36.20 35.83 35.26 34.75 34.30 33.58 33.89 34.19 34.10 34.17 33.00 32.39 31.20 31.81
38.74 38.56 38.36 37.88 37.65 37.08 31.37 34.17 40.15 32.18 29.97 33.51 35.08 33.82 34.99 35.11 36.15 35.40 34.94 34.39 33.12 33.68 31.41 30.00 30.83 33.95 35.09 37.88 38.69 36.46 37.37 37.52 37.31 34.18 33.52 34.90 36.80 36.68 36.49 36.55 36.15 36.26 36.15 35.48 34.90 32.96 34.23 33.71 34.26 34.91 34.09 32.41 32.03 30.76
36.65 39.08 38.46 38.51 38.52 37.32 35.38 34.88 32.00 32.62 34.40 31.83 34.59 33.10 32.12 34.09 32.66 31.22 31.09 33.66 30.47 30.05 30.35 34.25 35.73 37.85 38.95 39.63 39.74 39.48 37.91 36.98 35.29 36.79 35.39 34.69 37.24 36.99 36.76 36.80 36.83 36.99 35.74 35.13 34.68 34.42 33.51 34.71 34.58 34.31 33.56 32.04 32.30 31.62
38.17 36.57 38.34 38.51 34.51 33.64 32.84 36.69 34.13 34.76 32.60 32.65 32.23 33.22 31.21 30.08 29.63 31.30 35.15 31.04 30.41 33.08 35.44 35.81 36.25 35.99 34.04 33.96 34.47 35.26 35.07 34.42 34.71 34.54 33.71 34.53 34.81 33.96 34.23 35.43 35.58 35.84 35.00 34.84 34.82 36.17 35.89 36.02 35.30 33.94 32.97 31.75 31.08 30.47
35.26 36.68 36.27 33.70 28.62 29.38 28.27 36.13 29.65 31.66 27.30 29.28 32.74 28.85 29.40 29.86 32.30 34.47 29.49 32.04 33.95 36.77 35.37 33.96 34.92 35.01 34.64 34.40 33.75 34.19 34.73 34.88 34.16 34.23 35.09 36.31 35.61 35.67 35.43 34.72 35.03 33.54 32.38 34.81 36.60 36.56 36.02 34.37 33.24 33.44 32.20 30.99 30.59 29.50
32.90 30.32 25.80 26.63 26.62 24.41 28.25 26.39 30.54 28.92 29.68 28.03 27.16 25.35 27.86 30.21 32.83 29.68 27.03 30.79 31.97 31.46 30.65 30.56 32.80 32.16 32.45 32.37 31.92 32.64 33.33 33.84 32.81 33.07 34.90 34.62 33.81 33.45 33.86 33.30 33.20 33.36 33.78 34.39 35.24 35.50 34.92 34.35 32.86 31.76 30.81 30.17 29.72 29.01
25.31 22.02 23.57 20.31 24.49 22.18 21.87 22.36 23.39 24.79 22.59 25.43 24.01 24.96 27.46 30.43 26.29 25.55 25.91 29.91 29.16 28.68 28.69 29.97 31.80 31.89 30.98 31.49 32.34 31.98 32.36 33.47 31.69 30.75 32.58 34.19 34.18 32.44 31.89 32.59 33.17 32.82 33.65 33.38 33.08 32.72 32.17 32.35 32.13 31.81 30.16 30.42 29.69 28.69
18.97 21.04 19.45 21.06 21.38 20.39 21.88 18.73 20.39 20.43 21.85 20.56 23.33 26.39 27.18 25.44 22.19 21.78 25.01 25.83 26.09 27.04 27.19 28.35 29.34 30.03 30.24 31.88 30.18 29.72 30.48 32.65 32.30 30.52 31.82 32.28 32.63 32.01 30.51 29.82 30.92 31.59 33.31 33.11 32.72 32.54 32.90 32.72 31.99 31.33 30.57 30.24 29.51 29.68
17.16 17.74 21.33 25.43 23.94 22.62 21.66 23.18 24.24 21.66 18.84 18.57 21.96 20.42 21.32 17.97 19.00 20.66 23.70 23.33 23.36 24.78 24.42 24.93 25.17 25.78 27.39 28.44 28.80 28.92 29.81 29.91 29.40 30.57 32.18 32.62 31.84 32.60 32.75 31.69 30.47 31.10 32.18 31.44 32.25 31.37 31.27 31.81 32.54 32.17 31.81 31.81 31.50 30.91
20.33 20.05 14.64 18.47 19.60 22.68 16.61 17.98 17.74 17.25 20.03 23.01 21.00 16.49 16.52 18.02 19.67 22.80 23.71 24.43 24.63 24.34 23.98 24.54 25.10 25.30 25.61 26.79 28.68 28.30 28.41 28.90 28.50 27.94 29.20 30.05 30.60 30.76 30.62 30.98 30.36 27.73 31.08 32.57 33.08 32.90 31.81 31.63 31.81 31.81 32.17 32.17 31.99 31.99
16.84 19.55 18.47 12.09 14.74 18.02 18.15 17.51 18.44 22.40 24.59 21.97 18.03 17.51 19.77 24.05 24.85 24.63 25.21 24.54 24.39 22.66 21.74 22.08 23.62 25.51 25.07 26.70 26.84 27.46 27.65 27.42 26.17 23.46 23.78 25.34 25.85 27.55 29.65 29.11 29.21 29.25 29.45 29.13 30.00 29.75 31.06 31.00 31.24 31.45 31.81 31.81 32.90 32.90
15.61 20.06 15.91 13.32 11.40 12.82 19.20 22.95 21.84 24.72 23.78 23.16 22.82 21.93 21.93 23.35 26.34 27.71 24.91 23.88 22.74 21.89 22.82 22.99 22.96 22.01 21.35 23.60 24.65 24.93 26.24 26.68 26.68 26.28 27.04 27.04 28.41 28.36 28.08 27.41 27.61 27.92 28.08 27.73 27.74 28.44 28.80 30.29 31.20 31.43 31.04 31.45 31.63 31.99
18.04 17.75 15.73 15.35 14.09 19.13 21.72 22.45 21.45 20.40 19.55 19.21 21.08 18.84 18.47 21.22 24.14 25.97 24.59 24.36 23.58 22.66 21.13 19.98 20.12 21.26 20.90 21.62 22.63 22.54 21.82 23.37 22.00 22.23 23.55 25.91 26.39 26.50 26.59 26.26 27.02 27.12 26.69 26.32 26.27 26.64 26.88 27.14 28.54 29.94 30.11 30.89 31.55 31.33
16.35 14.86 13.47 10.32 14.28 19.36 19.49 18.05 17.85 17.65 18.58 18.60 18.50 20.28 19.60 17.59 15.04 20.97 25.09 23.43 21.06 19.29 19.45 19.74 20.12 20.55 21.83 22.42 21.46 21.48 19.86 21.42 21.41 20.95 20.81 21.81 23.64 23.77 24.42 24.89 25.67 25.65 25.32 25.10 25.27 25.41 25.91 25.55 26.50 28.10 28.31 29.31 31.16 31.27
13.35 13.78 13.55 12.85 12.92 12.29 17.14 15.08 14.31 14.09 15.71 15.15 16.53 18.09 18.19 16.89 13.83 21.55 24.24 24.14 22.53 21.42 20.50 21.39 22.01 23.67 20.52 19.82 19.74 19.74 18.80 19.77 17.53 16.52 16.07 15.55 15.15 16.78 18.56 22.16 24.06 24.38 23.91 24.20 25.10 25.66 24.97 25.09 25.38 26.35 27.10 27.88 29.31 31.27
MSLP
996.03 995.03 994.35 993.77 993.31 993.09 992.97 993.00 993.03 992.78 993.02 992.99 992.92 992.82 992.72 992.65 992.74 992.56 993.76 993.58 993.31 994.82 996.54 997.07 997.92 998.15 998.52 998.85 999.74 1002.17 1003.68 1004.22 1004.39 1004.59 1003.34 1003.76 1004.34 1004.60 1004.69 1005.18 1006.09 1006.55 1007.55 1007.75 1007.99 1007.15 1006.07 1005.41 1006.03 1006.40 1006.22 1006.19 1005.97 1005.78
995.65 994.91 993.93 993.36 992.97 992.65 992.75 993.02 993.36 993.44 993.44 993.76 993.81 993.87 993.89 993.82 993.63 993.60 994.26 994.31 994.42 995.51 998.22 999.07 999.67 999.30 998.48 998.50 999.55 1001.86 1001.63 1002.63 1003.28 1003.00 1002.57 1003.63 1004.18 1004.53 1004.21 1004.45 1005.21 1005.83 1005.89 1006.13 1006.45 1005.70 1005.72 1005.77 1005.77 1005.90 1006.16 1006.10 1005.64 1005.62
995.32 994.56 993.75 992.85 992.50 992.47 992.71 993.06 993.49 993.90 994.32 994.53 994.62 994.75 994.92 994.94 994.69 994.54 994.72 995.50 996.01 997.71 999.74 1000.41 1000.27 1000.11 999.49 999.22 1000.18 1000.58 1001.62 1002.29 1002.53 1001.96 1002.98 1003.49 1003.60 1003.82 1003.99 1003.90 1004.12 1005.03 1005.11 1005.46 1006.00 1005.36 1005.51 1005.33 1005.30 1005.32 1005.30 1005.04 1004.96 1005.09
994.99 994.09 993.38 992.73 992.32 992.26 992.64 993.09 993.73 994.30 994.82 995.19 995.57 995.74 995.82 995.76 995.54 995.70 995.96 996.29 996.33 996.97 998.81 1000.87 1000.74 1000.90 1001.03 1001.03 1000.98 1000.87 1001.63 1002.08 1002.48 1002.59 1002.84 1003.10 1003.36 1003.74 1003.46 1003.32 1003.69 1004.17 1004.97 1005.65 1005.12 1005.18 1005.23 1004.94 1004.85 1004.60 1004.65 1004.75 1004.88 1004.87
994.70 993.75 992.88 992.10 991.72 991.94 992.79 993.46 994.20 994.85 995.49 995.99 996.27 996.31 996.41 996.52 996.29 996.24 996.56 997.00 996.78 996.35 998.77 1000.82 1001.21 1001.73 1001.64 1001.47 1001.52 1001.72 1002.02 1002.28 1002.38 1003.12 1003.36 1003.33 1003.18 1003.95 1004.04 1004.12 1003.81 1004.25 1004.53 1004.76 1004.39 1004.68 1004.63 1004.33 1004.45 1004.59 1004.79 1004.85 1004.74 1004.69
994.94 993.74 992.39 990.89 990.57 991.86 993.15 994.05 994.91 995.58 996.26 996.79 997.17 997.37 997.41 997.24 996.89 996.86 997.84 998.33 998.24 998.11 999.12 1001.03 1002.62 1002.59 1002.17 1002.28 1002.49 1002.56 1002.53 1002.44 1002.90 1003.27 1003.06 1003.36 1004.04 1004.36 1004.29 1003.96 1003.86 1004.05 1004.32 1004.77 1004.54 1004.76 1004.64 1004.53 1004.69 1004.71 1004.52 1004.53 1004.50 1004.51
995.58 994.51 993.52 992.77 992.63 993.43 994.26 995.04 995.76 996.42 997.15 997.77 998.17 998.46 998.68 998.64 998.34 998.93 999.48 999.59 999.19 998.31 999.54 1001.26 1002.64 1003.66 1003.63 1003.69 1003.67 1003.70 1003.59 1003.99 1004.10 1004.02 1003.87 1003.63 1004.11 1005.24 1004.98 1004.30 1004.10 1004.07 1004.23 1004.39 1004.78 1005.12 1004.85 1004.88 1004.49 1004.38 1004.26 1004.39 1004.50 1004.83
996.74 995.94 995.37 995.07 995.07 995.35 995.83 996.39 996.87 997.41 998.17 998.81 999.17 999.47 999.72 999.79 999.86 999.85 1000.16 999.97 999.32 999.03 999.75 1000.75 1002.78 1003.83 1004.00 1004.10 1004.61 1004.57 1004.29 1004.41 1004.56 1004.39 1004.33 1003.99 1004.19 1004.88 1004.69 1004.04 1003.90 1004.25 1005.01 1005.34 1005.45 1005.64 1005.61 1005.11 1004.97 1004.53 1004.55 1004.55 1004.68 1004.68
998.05 997.48 997.10 996.93 996.87 997.04 997.33 997.73 998.21 998.81 999.40 999.92 1000.32 1000.51 1000.48 1000.78 1000.72 1001.06 1000.87 1000.24 999.82 999.68 999.87 1000.49 1001.60 1002.94 1003.91 1004.48 1005.09 1005.14 1004.80 1004.70 1004.47 1003.95 1003.92 1004.27 1004.29 1004.11 1003.96 1003.96 1004.33 1004.90 1005.87 1006.16 1005.93 1005.94 1005.52 1005.22 1005.15 1004.65 1004.56 1004.51 1004.40 1004.59
1000.09 999.50 998.97 998.74 998.63 998.66 998.93 999.34 999.78 1000.16 1000.50 1000.69 1000.83 1001.18 1001.92 1002.05 1001.86 1001.60 1001.51 1001.08 1000.57 1000.20 1000.27 1000.34 1000.96 1002.11 1003.01 1003.68 1004.53 1004.72 1004.14 1003.79 1003.87 1003.86 1004.18 1004.66 1003.84 1003.43 1003.32 1004.02 1005.03 1006.28 1006.64 1006.56 1006.58 1006.24 1005.83 1006.02 1005.92 1005.61 1005.86 1006.08 1006.51 1006.80
1001.58 1001.24 1001.01 1000.77 1000.64 1000.56 1000.58 1000.74 1000.94 1001.09 1000.98 1000.78 1001.86 1002.47 1002.66 1002.67 1001.94 1001.71 1002.13 1001.54 1001.25 1000.80 1000.64 1001.14 1001.60 1002.12 1003.11 1002.98 1003.36 1003.68 1003.83 1003.96 1003.76 1003.86 1004.18 1003.58 1003.06 1003.76 1004.79 1005.65 1006.56 1006.94 1007.16 1007.26 1007.38 1007.45 1007.45 1007.40 1007.40 1006.86 1006.99 1007.39 1007.58 1007.76
1002.72 1002.53 1002.26 1001.98 1002.08 1001.97 1001.98 1001.88 1001.81 1001.41 1001.21 1001.17 1002.16 1002.93 1002.84 1002.32 1001.89 1001.94 1001.91 1001.83 1000.93 1000.31 1000.44 1000.92 1001.67 1002.18 1002.91 1003.35 1003.68 1004.18 1004.07 1004.31 1003.81 1004.16 1004.27 1003.24 1003.95 1004.39 1005.27 1006.19 1006.83 1007.22 1007.55 1007.88 1008.03 1008.14 1008.06 1008.18 1008.15 1008.16 1008.21 1008.39 1008.48 1008.46
1003.93 1003.68 1003.52 1003.36 1003.21 1003.08 1002.97 1002.69 1002.18 1002.15 1001.64 1001.21 1001.31 1002.09 1002.35 1002.59 1002.10 1001.76 1001.72 1001.07 1000.64 1000.78 1001.06 1001.31 1002.05 1002.72 1003.41 1003.64 1003.97 1003.94 1004.03 1003.92 1004.11 1004.15 1003.23 1002.84 1004.27 1004.97 1005.72 1006.48 1007.21 1007.76 1008.36 1008.55 1008.69 1008.82 1008.88 1008.88 1008.96 1008.90 1008.96 1009.07 1008.97 1008.94
1004.84 1004.47 1004.24 1004.13 1003.94 1003.77 1003.62 1003.37 1003.15 1002.60 1001.97 1001.24 1001.32 1002.18 1002.22 1002.26 1001.69 1001.38 1001.09 1001.02 1001.30 1001.07 1001.12 1001.36 1002.21 1002.70 1003.44 1003.36 1003.74 1003.90 1003.93 1003.96 1003.74 1003.27 1002.53 1003.00 1004.28 1005.10 1006.07 1006.76 1007.46 1008.00 1008.44 1008.61 1008.87 1009.15 1009.20 1009.31 1009.46 1009.52 1009.51 1009.48 1009.38 1009.27
1005.40 1005.00 1004.57 1004.31 1004.37 1004.20 1003.96 1003.52 1003.01 1002.07 1001.79 1001.59 1001.71 1001.97 1002.29 1002.45 1002.60 1002.75 1002.34 1001.92 1001.85 1001.56 1001.47 1001.84 1002.58 1002.79 1003.11 1003.73 1003.49 1003.67 1004.02 1003.44 1002.66 1002.21 1002.76 1003.41 1004.36 1005.35 1006.20 1006.77 1007.55 1008.18 1008.60 1008.82 1009.06 1009.34 1009.48 1009.57 1009.62 1009.73 1009.79 1009.74 1009.65 1009.56
1005.52 1005.32 1004.99 1004.75 1004.46 1004.27 1004.00 1003.22 1002.67 1002.32 1002.16 1002.12 1002.26 1002.70 1003.03 1002.97 1003.33 1003.42 1002.99 1002.42 1002.23 1002.20 1002.11 1002.21 1002.42 1002.82 1002.94 1002.96 1003.21 1003.02 1002.55 1002.07 1002.15 1002.79 1003.33 1004.03 1004.81 1005.60 1006.28 1006.95 1007.58 1008.02 1008.27 1008.69 1008.99 1009.29 1009.50 1009.63 1009.64 1009.72 1009.78 1009.82 1009.85 1009.82
1005.84 1004.92 1005.32 1005.07 1004.81 1004.54 1004.20 1003.49 1003.06 1002.78 1002.59 1002.47 1003.03 1003.68 1003.66 1003.63 1003.70 1003.55 1003.03 1002.42 1002.52 1002.38 1001.93 1001.79 1001.88 1001.76 1002.10 1002.14 1001.93 1001.74 1001.73 1002.18 1003.04 1003.60 1004.01 1004.53 1005.18 1005.84 1006.42 1006.95 1007.53 1007.97 1008.16 1008.48 1008.82 1009.03 1009.24 1009.42 1009.51 1009.47 1009.38 1009.47 1009.48 1009.48
1005.18 1005.22 1005.49 1005.32 1005.06 1004.60 1003.99 1003.94 1003.52 1003.23 1002.75 1002.70 1003.00 1003.59 1003.87 1004.05 1004.18 1004.04 1003.45 1003.01 1002.57 1002.24 1002.04 1001.81 1001.63 1001.48 1001.38 1001.01 1000.89 1001.23 1002.06 1003.22 1003.50 1003.94 1004.40 1004.74 1005.31 1005.90 1006.28 1006.53 1007.09 1007.40 1007.74 1008.25 1008.51 1008.73 1008.88 1008.96 1008.85 1008.80 1008.89 1009.09 1009.28 1009.16
1005.77 1005.56 1005.67 1005.56 1005.40 1004.79 1004.14 1004.04 1004.07 1003.30 1002.99 1003.23 1003.28 1003.45 1003.82 1004.15 1004.23 1004.10 1004.01 1003.73 1003.03 1002.85 1002.56 1002.09 1001.56 1000.85 1000.54 1000.67 1001.23 1002.27 1002.82 1003.14 1003.77 1004.32 1004.73 1005.07 1005.44 1005.87 1006.10 1006.14 1006.62 1007.02 1007.27 1007.63 1007.82 1007.88 1008.04 1008.12 1008.09 1008.08 1008.49 1008.82 1008.91 1008.95
1006.13 1005.98 1005.80 1005.75 1005.62 1004.33 1003.83 1003.58 1003.78 1003.42 1002.80 1002.80 1002.92 1002.99 1003.14 1003.29 1003.47 1003.94 1004.01 1004.03 1004.00 1003.60 1002.85 1001.99 1001.24 1000.92 1001.17 1001.36 1001.82 1002.56 1003.01 1003.47 1003.74 1004.39 1004.72 1004.99 1005.18 1005.53 1005.78 1006.10 1006.23 1006.56 1006.84 1007.16 1007.40 1007.68 1007.64 1007.71 1007.75 1007.81 1008.19 1008.70 1008.94 1009.19
1005.77 1005.52 1005.52 1005.55 1004.59 1004.36 1003.59 1002.95 1003.29 1003.20 1002.68 1002.49 1002.52 1002.89 1003.03 1003.22 1003.37 1003.75 1003.84 1004.00 1004.06 1003.16 1002.05 1001.47 1001.38 1001.81 1002.29 1002.42 1002.66 1002.77 1003.37 1003.86 1003.99 1004.03 1004.29 1004.57 1004.83 1005.13 1005.33 1005.72 1006.17 1006.52 1006.66 1006.86 1007.00 1007.23 1007.38 1007.33 1007.57 1007.87 1008.51 1008.95 1009.26 1009.42
1005.33 1005.59 1005.14 1004.93 1004.45 1003.90 1003.42 1002.72 1002.68 1003.11 1003.00 1002.55 1002.54 1002.34 1002.44 1002.76 1002.87 1003.03 1003.02 1003.34 1002.70 1001.97 1001.78 1001.76 1001.87 1002.41 1003.01 1003.24 1003.52 1003.69 1003.94 1004.30 1004.49 1004.63 1004.69 1004.64 1004.98 1005.43 1005.60 1005.85 1006.21 1006.25 1006.48 1006.62 1006.66 1006.71 1006.95 1007.17 1007.57 1008.00 1008.59 1009.07 1009.33 1009.59
1005.94 1005.62 1005.09 1004.91 1004.77 1004.25 1003.70 1003.40 1002.87 1002.14 1002.18 1001.93 1001.67 1001.59 1001.65 1002.02 1002.04 1002.61 1002.48 1001.84 1001.73 1001.95 1002.39 1002.76 1002.78 1002.90 1003.13 1003.49 1003.89 1004.05 1004.17 1004.16 1004.36 1004.58 1004.84 1004.87 1005.15 1005.44 1005.58 1005.87 1006.16 1006.44 1006.49 1006.42 1006.33 1006.50 1006.83 1007.15 1007.70 1008.19 1008.69 1009.10 1009.35 1009.63
1006.24 1005.88 1005.75 1005.21 1005.03 1004.54 1004.49 1003.67 1002.93 1002.44 1001.88 1001.64 1001.42 1001.20 1000.95 1001.25 1001.85 1001.84 1001.52 1001.39 1002.05 1002.81 1003.15 1003.30 1003.31 1003.34 1003.58 1003.75 1003.88 1003.96 1004.17 1004.41 1004.60 1004.88 1005.01 1005.13 1005.25 1005.48 1005.62 1005.92 1006.16 1006.35 1006.47 1006.61 1006.57 1006.64 1006.94 1007.30 1007.69 1008.24 1008.69 1008.95 1009.20 1009.39
1006.49 1006.69 1006.38 1005.70 1005.51 1005.18 1004.57 1003.92 1003.45 1002.90 1002.37 1002.02 1001.94 1001.53 1001.42 1001.81 1001.57 1001.31 1001.14 1001.54 1002.54 1003.32 1003.62 1003.72 1003.59 1003.61 1003.62 1003.67 1003.91 1004.06 1004.56 1004.47 1004.64 1004.89 1005.24 1005.18 1005.24 1005.45 1005.76 1006.08 1006.27 1006.54 1006.67 1006.68 1006.66 1006.79 1007.14 1007.50 1007.84 1008.13 1008.41 1008.68 1008.93 1009.19
1006.30 1006.38 1006.24 1005.46 1005.44 1005.24 1004.59 1004.16 1003.87 1003.60 1003.33 1003.26 1002.78 1002.71 1002.87 1002.47 1002.20 1001.90 1002.53 1003.39 1003.94 1004.49 1004.74 1004.60 1004.22 1004.00 1004.03 1004.07 1004.29 1004.63 1004.85 1004.97 1005.05 1005.13 1005.12 1005.30 1005.32 1005.51 1005.79 1005.99 1006.14 1006.59 1006.91 1007.00 1006.89 1006.94 1007.09 1007.33 1007.56 1007.84 1008.08 1008.33 1008.63 1008.90
1005.78 1005.81 1005.86 1005.96 1005.71 1005.62 1005.29 1004.96 1004.62 1004.34 1003.89 1003.59 1003.51 1003.74 1003.55 1003.08 1002.48 1003.62 1004.64 1005.40 1005.57 1005.97 1006.28 1006.15 1005.82 1005.36 1005.08 1004.91 1005.22 1005.43 1005.57 1005.76 1005.69 1005.49 1005.61 1005.69 1005.91 1005.97 1005.99 1006.03 1006.24 1006.69 1006.98 1007.12 1007.15 1007.21 1007.24 1007.17 1007.17 1007.37 1007.56 1007.82 1008.09 1008.33
1005.61 1005.68 1005.87 1006.08 1005.96 1005.72 1005.67 1005.42 1005.02 1004.41 1003.92 1004.14 1004.53 1004.18 1003.73 1003.23 1003.53 1004.80 1005.48 1006.18 1006.51 1006.61 1006.57 1006.49 1006.42 1006.24 1006.04 1005.86 1005.79 1005.84 1005.89 1005.97 1006.11 1006.17 1006.16 1006.22 1006.26 1006.43 1006.62 1006.66 1006.90 1007.24 1007.20 1007.23 1007.21 1007.28 1007.28 1007.24 1007.23 1007.15 1007.05 1007.17 1007.37 1007.75
1005.83 1006.02 1006.29 1006.46 1006.51 1006.08 1005.67 1005.39 1004.97 1004.51 1004.47 1004.61 1004.48 1004.17 1003.94 1004.35 1005.11 1005.50 1005.83 1006.33 1006.65 1006.72 1006.46 1006.28 1006.13 1006.19 1006.18 1006.01 1006.02 1006.06 1006.05 1005.93 1005.81 1005.83 1005.79 1005.73 1006.07 1006.38 1006.60 1006.84 1007.01 1007.22 1007.38 1007.42 1007.20 1007.22 1007.23 1007.27 1007.28 1007.17 1007.01 1006.96 1006.88 1007.07
1005.80 1006.08 1006.11 1006.47 1006.36 1005.81 1005.30 1005.17 1005.27 1005.33 1005.57 1005.32 1005.19 1004.82 1004.62 1004.55 1004.67 1004.95 1005.55 1005.82 1005.93 1005.95 1005.97 1005.94 1005.98 1006.17 1006.04 1005.77 1005.61 1005.84 1006.15 1006.19 1006.02 1005.78 1005.31 1005.21 1005.27 1006.06 1006.52 1006.84 1007.06 1007.23 1007.40 1007.30 1007.10 1007.04 1007.06 1007.03 1006.81 1006.73 1006.66 1006.53 1006.45 1006.43
1006.10 1006.25 1006.21 1006.23 1006.01 1005.77 1005.78 1006.15 1006.54 1006.54 1006.34 1005.77 1005.42 1005.10 1004.53 1004.44 1004.42 1004.41 1004.70 1005.04 1005.24 1005.46 1005.75 1005.81 1005.89 1005.94 1005.93 1005.84 1005.80 1005.85 1005.99 1006.44 1006.65 1006.59 1006.39 1006.21 1006.30 1006.43 1006.75 1007.07 1007.24 1007.26 1007.24 1007.18 1007.12 1007.02 1006.91 1006.74 1006.52 1006.18 1006.04 1005.92 1005.86 1005.95
1006.27 1006.20 1006.33 1006.32 1006.20 1006.42 1006.80 1006.52 1006.18 1005.69 1005.34 1004.98 1004.72 1004.63 1004.56 1004.81 1004.56 1003.87 1003.82 1004.58 1004.89 1005.16 1005.32 1005.52 1005.43 1005.45 1005.92 1006.16 1006.31 1006.44 1006.60 1006.79 1006.97 1007.10 1007.13 1007.07 1006.95 1007.14 1007.29 1007.29 1007.25 1007.22 1007.12 1007.07 1007.03 1006.90 1006.71 1006.55 1006.30 1005.97 1005.65 1005.52 1005.43 1005.46
1006.91 1006.96 1006.87 1006.77 1006.57 1006.48 1006.65 1006.87 1006.21 1005.52 1005.06 1004.69 1004.39 1004.28 1004.29 1004.45 1004.04 1003.52 1004.18 1004.44 1004.56 1004.65 1004.91 1005.17 1005.53 1005.75 1006.25 1006.53 1006.63 1006.91 1007.12 1007.28 1007.61 1007.76 1007.85 1007.91 1007.94 1007.87 1007.79 1007.49 1007.20 1007.08 1007.05 1007.01 1006.84 1006.63 1006.41 1006.18 1005.95 1005.65 1005.37 1005.16 1005.05 1004.92
Wind_Speed
24 22 20 19 16 10 5 1 2 6 10 13 17 18 17 18 18 9 7 6 6 6 9 13 18 18 17 13 13 18 10 6 8 8 4 3 6 7 8 13 15 13 11 8 10 11 16 3 6 18 13 10 14 11
22 21 21 18 14 7 4 3 6 8 12 14 16 17 16 15 15 8 7 7 8 9 8 15 14 12 2 18 16 16 5 17 6 7 2 4 5 5 9 8 17 12 8 9 8 9 6 7 12 11 12 18 16 17
22 20 19 18 11 3 10 7 9 12 17 19 17 17 15 14 11 11 10 9 10 10 8 6 9 12 13 11 13 10 8 6 8 4 6 3 5 7 7 10 12 11 3 8 7 12 17 19 17 18 19 21 21 18
22 20 17 14 11 4 13 10 13 15 20 19 17 15 15 15 13 14 9 6 6 6 6 7 7 9 6 9 5 5 13 5 9 7 4 4 3 4 5 4 8 6 11 11 18 17 16 17 17 16 17 17 17 17
21 19 18 15 9 7 18 15 16 17 21 20 17 13 12 13 13 12 10 10 6 3 6 7 14 9 7 7 10 10 11 11 6 4 3 4 2 4 3 3 5 6 10 11 13 15 15 14 15 17 18 20 20 20
22 22 21 17 6 19 22 19 19 19 22 20 17 15 11 4 4 6 6 8 8 9 7 5 5 8 8 7 9 9 7 5 4 2 3 3 5 2 3 6 7 10 8 11 15 15 16 18 19 20 20 20 20 17
23 22 23 23 25 25 22 22 20 22 23 21 17 14 10 14 10 5 5 5 5 2 5 6 6 5 9 8 4 4 5 3 3 3 3 3 5 5 3 8 11 11 13 12 12 14 16 18 17 17 16 18 15 16
23 22 21 21 22 22 22 21 22 23 24 20 18 17 14 7 5 7 7 7 8 5 4 4 5 5 9 5 4 1 4 4 3 3 1 4 3 3 4 7 6 6 5 8 11 11 15 14 14 15 14 13 14 14
23 21 21 20 21 21 21 22 24 27 26 24 19 13 6 7 4 3 8 7 4 4 3 4 9 6 6 3 3 4 4 4 3 4 4 2 5 7 6 7 7 5 2 9 9 9 10 10 13 12 12 9 9 8
30 30 24 20 20 21 25 28 28 27 23 14 4 4 4 3 6 5 6 4 5 3 2 3 4 5 7 5 3 2 3 4 4 5 4 3 9 13 8 5 8 3 5 7 5 10 6 9 13 9 8 7 6 6
21 23 24 25 23 23 26 25 22 17 7 2 4 4 5 2 2 3 2 1 1 2 3 3 5 8 4 7 5 1 2 2 4 5 5 5 4 5 6 2 4 2 4 3 3 5 5 6 9 6 3 3 3 3
17 22 22 22 18 16 15 9 6 3 3 6 9 5 2 1 0 3 2 1 4 1 3 6 6 5 4 3 2 3 3 3 2 5 3 4 5 6 5 4 4 5 6 3 4 3 3 6 5 5 5 4 4 4
13 15 18 19 18 19 15 10 5 11 15 5 2 3 0 2 2 3 4 3 1 4 3 6 5 4 3 3 2 2 3 3 5 3 4 0 9 6 7 6 7 6 4 4 5 4 4 6 6 5 4 4 3 4
13 13 14 15 15 15 11 9 7 6 5 2 1 2 3 2 3 3 5 5 4 3 6 8 4 3 3 3 3 4 1 3 4 5 6 6 9 8 7 7 7 6 4 3 4 3 4 4 4 3 4 4 4 5
10 10 9 12 12 13 14 9 9 3 3 3 3 2 1 2 4 4 3 2 2 4 6 7 3 2 2 3 1 3 4 5 6 2 3 6 9 9 8 7 6 5 4 3 3 3 2 2 2 3 3 4 4 4
11 10 5 12 9 11 13 8 4 4 2 2 1 1 1 1 2 1 1 3 3 5 5 4 3 4 4 4 5 6 4 5 2 5 5 7 9 9 9 7 5 4 5 5 4 3 4 2 2 3 2 1 2 3
10 1 9 10 7 8 7 5 3 3 3 3 1 1 3 1 2 1 4 3 5 7 6 3 5 5 4 4 5 5 4 2 5 5 4 7 9 9 8 7 6 6 5 5 5 4 3 4 4 3 3 2 3 1
3 5 3 8 8 3 1 2 2 3 3 2 3 1 2 1 1 2 3 3 5 7 6 3 2 5 4 6 7 3 5 3 4 5 5 7 9 10 9 9 8 7 6 6 6 5 5 5 5 4 3 2 2 3
8 7 5 5 6 5 2 3 2 3 2 1 3 3 3 1 3 2 2 4 4 5 3 3 5 6 7 3 1 2 4 4 4 4 5 7 8 10 9 7 7 6 6 7 7 4 4 6 4 3 2 1 2 2
6 4 4 3 4 3 4 3 2 3 3 3 3 3 2 2 2 3 4 4 3 3 5 4 5 5 4 1 3 5 4 2 5 5 5 7 8 11 10 7 5 5 5 4 4 4 4 3 3 2 1 1 2 0
6 4 3 5 4 4 4 2 4 3 2 3 2 4 3 3 4 4 3 4 4 4 6 7 7 3 2 1 2 3 3 4 6 6 6 7 7 7 7 6 5 4 5 5 5 5 5 3 2 2 2 3 2 1
2 5 3 2 4 4 4 3 3 1 3 2 3 4 3 3 5 5 4 7 5 7 6 4 4 3 4 6 5 5 3 4 4 2 2 5 5 4 4 4 5 6 4 4 5 5 4 3 3 3 4 3 3 3
5 3 2 3 3 4 3 1 6 5 5 4 3 4 4 4 4 6 4 6 4 2 3 4 6 5 4 5 4 5 6 6 4 5 4 3 4 4 4 4 3 3 4 4 4 4 4 4 5 4 4 5 4 4
3 1 1 2 3 2 2 3 3 4 4 7 6 8 6 5 6 5 6 5 3 3 5 7 5 5 5 7 7 7 6 4 3 3 4 5 5 4 3 2 2 2 2 2 2 2 4 4 6 6 6 5 5 5
4 2 3 4 3 4 4 4 3 4 5 7 7 9 2 2 5 6 9 4 4 3 3 3 5 6 6 7 5 5 3 4 5 5 4 4 4 4 3 3 3 2 0 2 3 4 4 4 5 5 7 6 7 6
6 4 4 5 3 4 3 4 5 3 2 3 4 4 3 4 7 7 3 5 3 1 1 3 3 3 3 2 4 4 4 2 2 3 4 4 4 4 4 4 5 4 2 2 2 0 4 6 6 8 8 9 9 8
6 6 4 1 1 1 3 3 3 4 4 5 2 2 3 6 7 4 2 2 2 3 3 4 4 4 4 2 2 2 2 1 4 1 3 2 1 2 2 3 3 4 2 1 1 1 3 3 5 7 7 7 8 9
3 5 6 5 4 2 3 3 4 5 4 2 2 5 5 4 3 3 3 2 1 3 4 4 4 4 4 3 2 1 3 3 2 2 2 1 2 2 2 2 3 2 1 1 2 2 2 3 4 3 6 8 8 9
4 4 5 4 3 4 5 5 4 3 2 3 4 4 3 1 2 1 2 3 3 4 5 6 5 4 4 5 4 3 3 4 7 10 12 8 7 5 4 3 2 1 1 3 4 3 3 4 5 5 5 5 5 7
5 5 4 5 4 6 4 3 3 1 3 4 4 7 8 8 7 4 5 6 7 7 7 6 4 5 6 6 5 5 2 1 2 3 7 10 6 7 5 3 2 2 2 3 3 4 6 6 6 5 6 5 5 7
4 4 4 4 4 2 2 2 3 5 5 6 8 10 11 10 9 7 8 8 8 6 6 7 7 6 6 6 5 5 4 3 3 5 5 4 4 4 3 1 1 2 3 3 4 5 6 6 6 7 6 7 6 7
4 5 4 4 2 3 2 3 4 7 8 9 8 7 6 4 8 7 4 5 7 7 8 8 6 5 4 0 2 3 5 3 3 3 5 3 3 4 2 2 2 3 3 4 6 7 7 8 7 8 7 7 8 9
3 3 2 2 2 3 2 3 4 4 5 5 5 5 6 6 7 2 3 5 6 6 6 5 4 2 4 4 3 3 3 3 4 3 3 3 3 3 4 4 4 4 5 6 7 7 9 10 9 10 10 11 10 8
Wind_Direction
332 328 327 324 320 308 316 300 102 88 102 78 84 79 69 59 57 69 55 17 109 90 65 115 126 134 136 134 136 141 126 191 193 191 160 130 165 194 169 168 177 180 184 193 229 243 251 237 226 237 255 297 304 285
333 331 323 318 314 308 227 188 142 118 114 95 95 80 74 68 51 47 75 47 59 64 91 89 68 45 91 151 123 169 150 161 165 186 169 136 180 154 185 177 170 198 199 202 199 221 224 205 253 263 243 261 275 293
334 329 325 323 325 351 175 161 146 127 121 110 98 89 80 83 73 78 88 100 89 92 71 64 77 59 50 86 145 160 138 135 180 125 120 138 169 179 177 205 183 217 230 212 257 237 248 260 265 271 273 273 277 277
336 332 330 325 316 292 158 148 142 132 128 117 110 98 88 75 61 83 76 89 108 104 92 80 97 61 74 89 100 167 110 137 120 142 131 154 166 228 207 201 213 202 180 221 249 265 275 273 273 279 283 287 289 290
345 347 335 319 286 192 147 145 138 133 134 124 116 106 91 83 83 84 71 51 16 78 103 106 88 63 86 100 106 118 132 146 148 133 155 193 170 118 215 256 244 207 229 243 259 271 275 280 294 303 293 288 288 290
358 357 354 342 145 135 135 135 134 131 133 126 121 118 105 86 36 50 48 33 28 104 103 95 117 99 92 105 128 139 144 169 112 177 176 142 88 197 244 236 227 234 252 275 275 285 287 291 288 285 281 281 281 297
13 18 34 56 91 111 120 125 127 128 131 127 115 118 87 45 43 41 49 50 341 111 94 109 113 84 95 84 76 106 116 111 168 149 201 217 167 178 253 252 261 269 273 278 291 299 285 286 292 292 301 296 298 289
22 33 49 71 88 100 111 117 119 125 127 117 99 81 62 80 86 60 47 11 333 70 66 103 95 128 191 143 129 277 151 160 183 159 187 225 203 173 254 256 268 274 264 284 292 300 296 304 296 284 280 271 265 258
36 46 52 71 87 97 103 109 112 113 109 103 95 70 42 27 39 65 318 294 34 30 106 147 157 141 140 111 107 178 199 177 149 200 198 198 219 220 232 250 257 293 277 285 296 300 280 294 291 275 256 282 296 325
48 47 53 61 79 92 102 106 107 110 108 105 69 54 56 51 137 241 8 22 6 357 33 126 108 125 163 162 117 125 211 145 160 194 125 235 253 252 245 305 49 35 290 305 302 287 326 320 319 332 3 8 343 323
47 55 53 56 66 97 110 114 119 124 160 84 55 42 125 314 257 53 59 123 180 196 150 104 124 144 164 173 128 132 164 147 197 157 209 216 222 134 105 93 70 349 1 6 301 303 299 306 295 302 336 23 355 337
39 54 56 64 65 55 73 87 42 309 3 74 112 163 179 333 105 81 54 68 241 111 140 152 112 104 112 94 115 177 131 207 211 142 208 246 94 126 116 100 79 65 51 49 41 24 36 39 36 43 39 38 21 12
56 45 45 53 66 65 56 40 101 123 140 165 129 87 273 10 135 216 163 215 175 119 185 146 135 102 153 141 120 139 161 167 145 193 231 320 134 145 116 130 109 102 132 139 99 86 88 70 50 45 59 34 20 32
34 30 34 37 39 39 34 28 351 296 278 331 105 89 309 146 271 18 24 53 57 100 167 163 125 95 192 140 172 130 119 165 219 227 220 143 148 135 141 138 144 157 123 95 82 68 72 79 78 53 41 24 27 31
356 1 358 14 12 17 8 343 320 305 341 354 335 14 68 48 41 28 25 97 70 151 160 130 121 117 114 98 201 137 170 238 222 258 75 136 140 147 155 148 142 147 156 150 135 133 124 123 110 80 48 32 34 26
326 305 1 339 346 356 354 319 324 328 323 307 339 240 36 219 129 120 213 111 155 158 170 187 151 161 189 165 181 211 216 235 98 115 121 141 148 152 156 149 157 164 176 162 152 161 160 160 152 126 93 47 21 25
302 321 4 352 359 334 333 320 334 309 304 286 73 16 315 314 15 134 207 151 171 189 198 188 187 193 141 201 212 206 234 20 123 134 146 156 162 163 145 149 175 186 182 181 179 188 162 171 178 209 231 227 275 343
266 97 3 346 330 312 326 313 279 269 252 250 264 278 256 84 209 213 229 210 193 216 232 256 289 205 213 218 227 189 101 118 131 144 156 161 162 164 168 171 183 182 177 186 199 200 206 207 217 225 237 214 252 276
10 350 7 319 322 304 260 204 232 273 264 233 246 214 188 192 224 313 201 256 316 340 297 245 236 241 235 223 113 74 140 150 156 160 166 171 174 178 186 181 162 190 186 186 200 206 213 216 218 201 148 156 318 3
282 329 341 325 295 254 240 197 214 232 251 205 205 213 219 227 160 171 202 192 212 240 224 231 256 296 315 91 126 167 174 149 158 168 179 183 182 183 197 184 193 188 194 209 215 224 228 224 235 253 89 104 179 157
224 80 238 244 211 246 283 211 211 253 286 267 189 183 212 178 221 198 216 173 201 224 231 239 248 223 358 75 194 203 172 201 205 212 188 187 190 195 200 205 160 189 200 210 226 202 227 231 215 137 152 105 114 148
52 326 274 140 256 217 250 231 294 225 236 255 229 210 185 201 206 202 188 195 236 231 238 261 262 165 204 211 209 215 157 189 182 137 95 133 149 166 185 178 187 199 209 223 234 214 223 214 162 160 131 145 159 155
279 236 235 241 241 247 259 287 234 213 222 230 217 220 212 194 201 154 225 224 237 239 209 236 239 216 210 149 172 198 202 204 182 168 153 141 141 167 188 190 195 197 233 250 252 213 201 173 139 136 140 164 163 158
204 340 263 240 246 255 297 252 272 274 248 246 250 245 242 200 164 213 234 206 124 128 215 218 218 182 169 187 196 193 188 197 156 147 188 171 175 186 170 200 216 243 272 267 264 190 150 160 140 173 177 178 181 186
235 187 244 214 238 225 222 219 236 255 255 258 280 264 7 312 228 226 227 166 150 201 208 245 218 209 211 199 190 150 177 216 196 185 190 222 189 154 166 189 149 109 230 233 194 149 149 154 175 176 187 188 192 198
236 177 221 194 197 225 206 227 204 237 296 264 255 331 318 279 258 269 30 44 51 44 0 353 339 213 208 196 167 158 169 171 199 217 204 199 232 182 196 211 190 140 75 34 25 124 192 181 187 195 202 200 196 197
224 194 188 200 252 216 259 250 256 241 231 231 238 275 257 248 249 65 84 60 331 33 325 324 320 315 341 108 97 74 82 105 260 20 36 111 54 334 316 219 191 106 123 109 76 2 325 320 213 205 205 196 197 202
227 188 185 182 203 201 209 268 232 231 230 115 218 220 242 270 12 66 43 80 303 293 289 283 280 282 284 292 291 247 221 201 204 251 261 207 150 139 122 89 95 72 223 245 350 316 300 308 307 305 229 216 201 195
186 169 145 164 204 206 221 214 243 229 179 197 221 240 250 73 54 268 264 268 266 268 269 266 262 242 256 235 222 224 236 232 212 204 208 206 183 177 160 163 165 170 259 269 231 236 281 285 281 277 277 273 233 195
165 178 172 160 194 214 217 217 256 219 249 272 294 284 272 260 263 235 255 258 255 255 258 259 260 250 257 237 215 181 159 315 308 308 230 215 176 128 146 166 195 232 264 276 284 285 278 266 250 239 242 236 226 204
133 181 182 192 232 235 299 29 279 250 250 256 255 260 271 289 298 269 246 249 253 248 247 243 238 235 242 235 236 203 175 117 63 49 30 56 85 98 99 102 269 275 280 280 274 269 267 270 268 267 261 251 229 208
177 187 173 205 242 130 246 247 267 265 265 247 250 249 255 252 273 269 180 218 222 229 232 240 240 229 207 259 42 62 42 91 99 58 43 33 34 41 356 304 284 268 274 280 279 271 266 260 264 267 265 267 244 219
141 178 191 236 226 232 148 272 259 272 257 259 274 267 270 268 259 272 126 214 224 223 223 214 224 161 160 182 164 124 117 99 84 78 64 23 347 335 312 290 285 280 278 273 272 270 267 263 261 263 264 257 263 234